Regional Weather Roundup
Issued by NWS New Orleans/Baton Rouge, LA

Home | Current Version | Previous Version | Graphics & Text | Print | Product List | Glossary On
Versions: 1 2 3 4 5 6 7 8 9 10 11 12 13 14 15 16 17 18 19 20 21 22 23 24 25 26 27 28 29 30 31 32 33 34 35 36 37 38 39 40 41 42 43 44 45 46 47 48 49 50
954
ASUS44 KLIX 250810
RWRLIX
NEW ORLEANS REGIONAL WEATHER ROUNDUP
NATIONAL WEATHER SERVICE NEW ORLEANS LA
300 AM CDT SAT OCT 25 2014

NOTE: "FAIR" INDICATES FEW OR NO CLOUDS BELOW 12,000 FEET WITH NO
      SIGNIFICANT WEATHER AND/OR OBSTRUCTIONS TO VISIBILITY.
      SKY/WX - SKY CONDITION AND SIGNIFICANT WEATHER.
      TMP - AIR TEMPERATURE.     DP    - DEWPOINT TEMPERATURE.
      RH  - RELATIVE HUMIDITY.   PRES  - PRESSURE.
      HI  - HEAT INDEX.          WCI   - WIND CHILL INDEX.

*  THESE STATIONS ARE NOT NWS OR FAA STATIONS AND ARE NOT UNDER
   NWS QUALITY CONTROL.

LAZ038-040-048-061>063-065>067-069-250900-
SOUTHEAST LOUISIANA

CITY           SKY/WX    TMP DP  RH WIND       PRES   REMARKS
N.O. AUDUBON     N/A     61  53  74 MISG        N/A
N.O. INTL ARPT CLEAR     62  52  69 N6        30.09F
N.O. LAKEFRONT CLEAR     67  52  58 N15       30.09F
N.O. DOWNTOWN*   N/A     64  48  55 N6        30.09F
SLIDELL        CLEAR     46  43  89 CALM      30.09S
BATON ROUGE    CLEAR     49  47  93 CALM      30.11S
BOOTHVILLE     CLEAR     68  59  73 VRB6      30.07F
BELLE CHASSE   CLEAR     51  48  89 CALM      30.09F
BOGALUSA*        N/A     47  44  90 CALM      30.12S
NEW ROADS*       N/A     48  47  97 CALM      30.12R
GONZALES*        N/A     50  50 100 CALM      30.10S
HAMMOND*       CLEAR     48  45  87 N5        30.12S
HOUMA*         CLEAR     54  50  87 N5        30.09S
PORT FOURCHON* SUNNY     66  59  77 N8        30.11S

$$

MSZ070-080>082-250900-
SOUTHERN MISSISSIPPI

CITY           SKY/WX    TMP DP  RH WIND       PRES   REMARKS
MCCOMB         CLEAR     56  45  66 N6        30.11S
GULFPORT       CLEAR     51  47  86 CALM      30.08S
BILOXI         CLEAR     57  47  71 N6        30.08S
PASCAGOULA     CLEAR     42  42 100 CALM      30.08S

$$

COASTAL OBSERVATIONS
LAKE AND NEARSHORE STATIONS

STATION/POSITION TIME  TEMP    WIND        PRES    WAVE
                       AIR SEA DIR/SP/G            HT/PER
                 (UTC) (F)     (DEG/KT/KT) (MB)    (FT/S)
PASCAGOULA       0800   57     360/  9/ 11 1017.8
WAVELAND YACHT   0800   60     340/  7/ 11 1017.9
GRAND ISLE       0800   68 72   20/ 10/ 13 1018.9
SOUTHWEST PASS   0800   71 80              1018.3
NEW CANAL        0800   68 70   20/ 13/ 15 1019.2
SHELL BEACH      0800   67 67  360/ 13/ 15 1018.4

OFFSHORE STATIONS

STATION/POSITION TIME  TEMP    WIND        PRES    WAVE
                       AIR SEA DIR/SP/G            HT/PER
                 (UTC) (F)     (DEG/KT/KT) (MB)    (FT/S)
64 S DAUPHIN ISL 0720   74 78   20/ 16/ 17 1017.6    3/ 5

$$




USA.gov is the U.S. government's official web portal to all federal, state and local government web resources and services.